Weather History for KTZR - November, 2013

Change the Weather History Date:

Friday, November 22, 2013

  Actual Average Record
Temperature  
Mean Temperature 43 °F -  
Max Temperature 52 °F 48 °F 69 °F (1999)
Min Temperature 35 °F 33 °F 14 °F (2008)
Degree Days  
Heating Degree Days 22    
Moisture  
Dew Point 42 °F    
Average Humidity 90    
Maximum Humidity 100    
Minimum Humidity 73    
Precipitation  
Precipitation 0.03 in - - ()
Sea Level Pressure  
Sea Level Pressure 30.24 in    
Wind  
Wind Speed 7 mph (West)    
Max Wind Speed 21 mph    
Max Gust Speed 25 mph    
Visibility 8 miles    
Events Rain    
Averages and records for this station are not official NWS values.
T = Trace of Precipitation, MM = Missing Value Source: NWS Daily Summary

Daily Weather History Graph

Daily Weather History Graph

Search for Another Location

Airport or City:

Trip Planner

Search our weather history database for the weather conditions in past years. The results will help you decide how hot, cold, wet, or windy it might be!

Date:

Astronomy

Nov. 22, 2013 Rise Set
Actual Time 7:25 AM EST 5:11 PM EST
Civil Twilight 6:56 AM EST 5:41 PM EST
Nautical Twilight 6:23 AM EST 6:14 PM EST
Astronomical Twilight 5:50 AM EST 6:46 PM EST
Moon 9:42 PM EST (11/22) 11:08 AM EST (11/22)
Length of Visible Light 10h 44m
Length of Day
9h 45m
Waning Gibbous, 78% of the Moon is Illuminated
Nov 22
Waning Gibbous
Nov 25
Last Quarter
Dec 2
New
Dec 9
First Quarter
Dec 17
Full

Hourly Weather History & Observations

Time (EST) Temp. Windchill Dew Point Humidity Pressure Visibility Wind Dir Wind Speed Gust Speed Precip Events Conditions
12:15 AM 46.9 °F - 44.6 °F 92% 30.21 in 7.0 mi South 3.5 mph - 0.02 in Rain Rain
12:35 AM 46.9 °F - 45.0 °F 93% 30.21 in 10.0 mi South 3.5 mph - 0.02 in   Light Drizzle
12:55 AM 47.5 °F - 45.0 °F 91% 30.21 in 10.0 mi South 4.6 mph - 0.02 in   Overcast
1:15 AM 47.7 °F - 45.5 °F 92% 30.21 in 10.0 mi South 4.6 mph - N/A   Overcast
1:35 AM 48.4 °F - 45.5 °F 90% 30.20 in 10.0 mi SSW 4.6 mph - N/A   Overcast
1:55 AM 48.6 °F - 45.7 °F 90% 30.20 in 10.0 mi SSW 5.8 mph - N/A   Overcast
2:15 AM 48.7 °F - 46.2 °F 91% 30.20 in 10.0 mi South 3.5 mph - N/A   Overcast
2:35 AM 48.7 °F - 46.6 °F 92% 30.20 in 10.0 mi South 4.6 mph - N/A   Overcast
2:55 AM 48.6 °F - 47.1 °F 95% 30.20 in 10.0 mi South 3.5 mph - N/A   Overcast
3:15 AM 48.2 °F - 46.9 °F 95% 30.20 in 10.0 mi SSW 3.5 mph - N/A   Overcast
3:35 AM 48.2 °F - 47.3 °F 97% 30.20 in 5.0 mi SSW 5.8 mph - N/A Rain Rain
3:55 AM 48.2 °F - 47.7 °F 98% 30.19 in 4.0 mi South 4.6 mph - N/A   Drizzle
4:15 AM 48.7 °F - 48.2 °F 98% 30.19 in 7.0 mi SSW 4.6 mph - N/A   Overcast
4:35 AM 49.3 °F - 49.1 °F 99% 30.19 in 7.0 mi South 6.9 mph - N/A   Overcast
4:55 AM 49.6 °F - 49.3 °F 99% 30.19 in 7.0 mi South 5.8 mph - N/A   Overcast
5:15 AM 50.0 °F - 49.6 °F 99% 30.18 in 5.0 mi South 4.6 mph - N/A   Overcast
5:35 AM 49.5 °F - 49.3 °F 99% 30.18 in 5.0 mi SSW 4.6 mph - N/A   Overcast
5:55 AM 49.6 °F - 49.5 °F 99% 30.18 in 5.0 mi SSW 6.9 mph - N/A Rain Light Rain
6:15 AM 50.0 °F - 49.6 °F 99% 30.17 in 5.0 mi South 5.8 mph - 0.01 in Rain Light Rain
7:15 AM 50.0 °F - 50.0 °F 100% 30.17 in 3.0 mi Calm Calm - N/A Rain Light Rain
7:50 AM 50.0 °F - 50.0 °F 100% 30.18 in 2.0 mi Calm Calm - N/A Rain Rain
8:50 AM 51.8 °F - 51.8 °F 100% 30.17 in 1.0 mi SSW 3.5 mph - N/A Rain Light Rain
9:50 AM 51.8 °F - 51.8 °F 100% 30.18 in 1.2 mi West 4.6 mph - N/A Rain Rain
10:50 AM 51.8 °F - 51.8 °F 100% 30.18 in 2.5 mi West 3.5 mph - N/A Rain Light Rain
11:50 AM 51.8 °F - 51.8 °F 100% 30.17 in 3.0 mi WNW 4.6 mph - N/A Rain Light Rain
12:25 PM 51.8 °F - 50.0 °F 94% 30.16 in 5.0 mi NW 11.5 mph 17.3 mph N/A   Overcast
12:50 PM 50.0 °F - 50.0 °F 100% 30.16 in 7.0 mi North - - N/A   Overcast
1:30 PM 50.0 °F - 48.2 °F 94% 30.16 in 10.0 mi WNW 8.1 mph - N/A   Overcast
1:47 PM 50.0 °F - 48.2 °F 94% 30.17 in 10.0 mi WNW 11.5 mph - N/A   Overcast
3:39 PM 46.4 °F 40.4 °F 44.6 °F 93% 30.20 in 3.0 mi WNW 13.8 mph 23.0 mph N/A   Overcast
3:50 PM 46.4 °F 40.1 °F 44.6 °F 93% 30.21 in 4.0 mi NW 15.0 mph - N/A   Overcast
4:02 PM 46.4 °F 41.1 °F 42.8 °F 87% 30.22 in 5.0 mi WNW 11.5 mph 21.9 mph N/A   Overcast
4:50 PM 44.6 °F 39.2 °F 42.8 °F 93% 30.23 in 5.0 mi NNW 10.4 mph - N/A   Overcast
5:50 PM 42.8 °F 35.1 °F 41.0 °F 93% 30.25 in 7.0 mi NNW 16.1 mph - N/A   Overcast
6:35 PM 43.2 °F 36.6 °F 40.1 °F 89% 30.27 in 10.0 mi NW 12.7 mph 18.4 mph N/A   Overcast
6:50 PM 42.8 °F 35.4 °F 39.2 °F 87% 30.28 in 10.0 mi NNW 15.0 mph 21.9 mph N/A   Overcast
6:55 PM 42.1 °F 33.6 °F 37.9 °F 85% 30.29 in 10.0 mi NNW 18.4 mph 24.2 mph N/A   Overcast
7:15 PM 41.0 °F 33.5 °F 37.2 °F 86% 30.30 in 10.0 mi NNW 13.8 mph 17.3 mph N/A   Mostly Cloudy
7:35 PM 40.5 °F 30.9 °F 36.7 °F 86% 30.30 in 10.0 mi NW 20.7 mph 25.3 mph N/A   Overcast
7:55 PM 39.6 °F 31.3 °F 34.7 °F 83% 30.32 in 10.0 mi NW 15.0 mph 25.3 mph N/A   Overcast
8:15 PM 39.2 °F 30.8 °F 33.1 °F 79% 30.33 in 10.0 mi NNW 15.0 mph 19.6 mph N/A   Overcast
8:35 PM 38.7 °F 29.5 °F 33.3 °F 81% 30.33 in 10.0 mi NW 17.3 mph 21.9 mph N/A   Overcast
8:55 PM 38.1 °F 29.5 °F 32.7 °F 81% 30.34 in 10.0 mi NNW 15.0 mph 23.0 mph N/A   Overcast
9:15 PM 37.6 °F 28.8 °F 32.0 °F 80% 30.34 in 10.0 mi North 15.0 mph 21.9 mph N/A   Overcast
9:35 PM 37.0 °F 27.7 °F 29.8 °F 75% 30.35 in 10.0 mi North 16.1 mph - N/A   Overcast
9:55 PM 37.0 °F 28.5 °F 29.7 °F 75% 30.35 in 10.0 mi North 13.8 mph - N/A   Overcast
10:15 PM 36.9 °F 28.7 °F 30.0 °F 76% 30.35 in 10.0 mi North 12.7 mph 16.1 mph N/A   Overcast
10:35 PM 36.5 °F 28.7 °F 30.2 °F 78% 30.34 in 10.0 mi North 11.5 mph 19.6 mph N/A   Overcast
10:55 PM 36.1 °F 27.3 °F 28.9 °F 75% 30.35 in 10.0 mi North 13.8 mph - N/A   Overcast
11:15 PM 35.6 °F 28.0 °F 28.2 °F 75% 30.35 in 10.0 mi North 10.4 mph - N/A   Overcast
11:35 PM 35.2 °F 28.1 °F 27.5 °F 73% 30.35 in 10.0 mi North 9.2 mph - N/A   Mostly Cloudy
11:55 PM 35.1 °F 27.9 °F 27.5 °F 74% 30.35 in 10.0 mi NNW 9.2 mph - N/A   Scattered Clouds